Terminal Aerodrome Forecast
Issued by NWS Omaha/Valley, NE

Home | Current Version | Previous Version | Text Only | Print | Product List | Glossary On
Versions: 1 2 3 4 5 6 7 8 9 10 11 12 13 14 15 16 17 18 19 20 21 22 23 24 25 26 27 28 29 30 31 32 33 34 35 36 37 38 39 40
000
FTUS43 KOAX 011128
TAFOMA
TAF
KOMA 011128Z 0112/0212 36016G25KT 1SM -SN BR OVC004
     FM011400 35024G33KT 1SM -SN BLSN OVC007
     FM012300 34015G25KT 5SM -SN BLSN OVC020
     FM020300 34015KT P6SM OVC025
     FM020700 33008KT P6SM SCT120=

USA.gov is the U.S. government's official web portal to all federal, state and local government web resources and services.